Kinloss, United Kingdom

12:37 PM GMT on January 18, 2017 (GMT +0000)
Kinloss Air Base

Weather History for EGQK - January, 2013

Change the Weather History Date:

Friday, January 4, 2013

  Actual Average Record
Temperature  
Mean Temperature 50 °F -  
Max Temperature 52 °F 43 °F 55 °F (2005)
Min Temperature 48 °F 32 °F 26 °F (2006)
Degree Days  
Heating Degree Days 15    
Moisture  
Dew Point 44 °F    
Average Humidity 73    
Maximum Humidity 82    
Minimum Humidity 63    
Precipitation  
Precipitation 0.00 in 0.07 in - ()
Sea Level Pressure  
Sea Level Pressure 30.31 in    
Wind  
Wind Speed 14 mph ()    
Max Wind Speed 22 mph    
Max Gust Speed -    
Visibility 6.2 miles    
Events      
Averages and records for this station are not official NWS values.
T = Trace of Precipitation, MM = Missing Value Source: Averaged Metar Reports

Daily Weather History Graph

Daily Weather History Graph

Search for Another Location

Airport or City:

Trip Planner

Search our weather history database for the weather conditions in past years. The results will help you decide how hot, cold, wet, or windy it might be!

Date:

Astronomy

Jan. 04, 2013 Rise Set
Actual Time 8:55 AM GMT 3:43 PM GMT
Civil Twilight 8:05 AM GMT 4:33 PM GMT
Nautical Twilight 7:14 AM GMT 5:24 PM GMT
Astronomical Twilight 6:27 AM GMT 6:11 PM GMT
Moon No Moon Rise 10:53 AM GMT (1/4)
Length of Visible Light 8h 27m
Length of Day
6h 47m
Waning Gibbous, 57% of the Moon is Illuminated
Jan 4
Waning Gibbous
Jan 5
Last Quarter
Jan 11
New
Jan 18
First Quarter
Jan 27
Full

Hourly Weather History & Observations

Time (GMT) Temp. Dew Point Humidity Pressure Visibility Wind Dir Wind Speed Gust Speed Precip Events Conditions
12:50 AM 53.6 °F 44.6 °F 72% 30.21 in 6.2 mi SSW 16.1 mph - N/A   Unknown
1:50 AM 51.8 °F 44.6 °F 76% 30.21 in 6.2 mi SW 17.3 mph - N/A   Unknown
2:50 AM 52 °F 45 °F 69% 30.25 in 28 mi SW 19.6 mph - -  
2:50 AM 51.8 °F 44.6 °F 76% 30.24 in 6.2 mi SW 19.6 mph - N/A   Unknown
3:50 AM 51.8 °F 44.6 °F 76% 30.24 in 6.2 mi SW 19.6 mph - N/A   Unknown
4:50 AM 51.8 °F 44.6 °F 76% 30.24 in 6.2 mi SW 20.7 mph - N/A   Scattered Clouds
5:50 AM 52 °F 44 °F 66% 30.27 in 28 mi SW 19.6 mph - -  
5:50 AM 51.8 °F 44.6 °F 76% 30.27 in 6.2 mi SW 19.6 mph - N/A   Mostly Cloudy
6:50 AM 51.8 °F 44.6 °F 76% 30.30 in 6.2 mi SW 9.2 mph - N/A   Mostly Cloudy
7:50 AM 51.8 °F 44.6 °F 76% 30.30 in 6.2 mi SW 12.7 mph - N/A   Mostly Cloudy
8:50 AM 51 °F 44 °F 68% 30.34 in - WSW 12.7 mph - -   Partly Cloudy
8:50 AM 51.8 °F 42.8 °F 71% 30.33 in - WSW 12.7 mph - N/A   Mostly Cloudy
9:50 AM 51.8 °F 42.8 °F 71% 30.33 in 6.2 mi SW 21.9 mph - N/A   Overcast
10:40 AM 51.8 °F 44.6 °F 76% 30.33 in - SW 11.5 mph - N/A   Clear
11:50 AM 52 °F 45 °F 69% 30.36 in 37 mi SW 11.5 mph - -   Mostly Cloudy
11:50 AM 51.8 °F 44.6 °F 76% 30.36 in 6.2 mi SW 11.5 mph - N/A   Mostly Cloudy
12:50 PM 51.8 °F 44.6 °F 76% 30.33 in 6.2 mi WSW 10.4 mph - N/A   Mostly Cloudy
1:50 PM 51.8 °F 44.6 °F 76% 30.33 in 6.2 mi WSW 11.5 mph - N/A   Mostly Cloudy
2:50 PM 52 °F 43 °F 63% 30.34 in 44 mi SW 17.3 mph - -   Mostly Cloudy
2:50 PM 51.8 °F 42.8 °F 71% 30.33 in 6.2 mi SW 17.3 mph - N/A   Mostly Cloudy
3:50 PM 50.0 °F 42.8 °F 76% 30.33 in 6.2 mi SW 17.3 mph - N/A   Partly Cloudy
4:50 PM 50.0 °F 42.8 °F 76% 30.33 in 6.2 mi SW 11.5 mph - N/A   Mostly Cloudy
5:50 PM 49 °F 43 °F 72% 30.35 in 47 mi SW 15.0 mph - -   Partly Cloudy
5:50 PM 50.0 °F 42.8 °F 76% 30.33 in 6.2 mi SW 15.0 mph - N/A   Scattered Clouds
6:50 PM 48.2 °F 42.8 °F 82% 30.36 in 6.2 mi SW 9.2 mph - N/A   Scattered Clouds
7:50 PM 50.0 °F 42.8 °F 76% 30.36 in 6.2 mi SW 10.4 mph - N/A   Mostly Cloudy
8:50 PM 50 °F 43 °F 70% 30.37 in 47 mi SW 11.5 mph - -   Overcast
8:50 PM 50.0 °F 42.8 °F 76% 30.36 in 6.2 mi SW 11.5 mph - N/A   Overcast
9:50 PM 50.0 °F 42.8 °F 76% 30.36 in 6.2 mi SW 8.1 mph - N/A   Overcast
10:50 PM 51.8 °F 42.8 °F 71% 30.33 in 6.2 mi SW 11.5 mph - N/A   Overcast
11:50 PM 48 °F 41 °F 69% 30.35 in 47 mi SSW 8.1 mph - -   Partly Cloudy
11:50 PM 48.2 °F 41.0 °F 76% 30.33 in 6.2 mi SSW 8.1 mph - N/A   Scattered Clouds